Fryeburg, ME

10:19 AM EDT on April 28, 2017 (GMT -0400)
Eastern Slopes Regional

Weather History for KIZG - February, 2015

Change the Weather History Date:

Saturday, February 7, 2015

  Actual Average Record
Temperature  
Mean Temperature 18 °F -  
Max Temperature 26 °F 30 °F 50 °F (2005)
Min Temperature 10 °F 5 °F -9 °F (2009)
Degree Days  
Heating Degree Days 47    
Moisture  
Dew Point 11 °F    
Average Humidity 70    
Maximum Humidity 88    
Minimum Humidity 51    
Precipitation  
Precipitation 0.00 in - - ()
Sea Level Pressure  
Sea Level Pressure 30.01 in    
Wind  
Wind Speed 3 mph (NW)    
Max Wind Speed 8 mph    
Max Gust Speed -    
Visibility 8 miles    
Events Snow    
Averages and records for this station are not official NWS values.
T = Trace of Precipitation, MM = Missing Value Source: NWS Daily Summary

Daily Weather History Graph

Daily Weather History Graph

Search for Another Location

Airport or City:

Trip Planner

Search our weather history database for the weather conditions in past years. The results will help you decide how hot, cold, wet, or windy it might be!

Date:

Astronomy

Feb. 07, 2015 Rise Set
Actual Time 6:54 AM EST 5:02 PM EST
Civil Twilight 6:24 AM EST 5:32 PM EST
Nautical Twilight 5:49 AM EST 6:06 PM EST
Astronomical Twilight 5:16 AM EST 6:40 PM EST
Moon 8:51 PM EST (2/7) 8:21 AM EST (2/7)
Length of Visible Light 11h 08m
Length of Day
10h 07m
Waning Gibbous, 88% of the Moon is Illuminated
Feb 7
Waning Gibbous
Feb 11
Last Quarter
Feb 18
New
Feb 25
First Quarter
Mar 5
Full

Hourly Weather History & Observations

Time (EST) Temp. Windchill Dew Point Humidity Pressure Visibility Wind Dir Wind Speed Gust Speed Precip Events Conditions
12:54 AM 12.9 °F 6.9 °F 7.0 °F 77% 29.94 in 10.0 mi SW 3.5 mph - N/A   Overcast
1:54 AM 12.9 °F - 6.1 °F 74% 29.95 in 10.0 mi Calm Calm - N/A   Overcast
2:54 AM 12.9 °F - 7.0 °F 77% 29.97 in 3.0 mi Calm Calm - 0.00 in Snow Light Snow
3:01 AM 12.9 °F - 8.1 °F 81% 29.94 in 2.5 mi Calm Calm - 0.00 in Snow Light Snow
3:08 AM 12.0 °F - 8.1 °F 84% 29.94 in 4.0 mi Calm Calm - 0.00 in Snow Light Snow
3:54 AM 10.0 °F 1.8 °F 6.1 °F 84% 29.99 in 10.0 mi NNE 4.6 mph - 0.00 in   Overcast
4:54 AM 12.0 °F 5.9 °F 7.0 °F 80% 30.01 in 10.0 mi Variable 3.5 mph - N/A   Overcast
5:54 AM 16.0 °F 6.3 °F 10.0 °F 77% 30.01 in 9.0 mi SSW 6.9 mph - 0.00 in Snow Light Snow
6:54 AM 16.0 °F 5.3 °F 10.0 °F 77% 30.03 in 10.0 mi SSW 8.1 mph - 0.00 in   Overcast
7:54 AM 18.0 °F 7.7 °F 9.0 °F 68% 30.04 in 10.0 mi SW 8.1 mph - N/A   Overcast
8:54 AM 19.0 °F 11.1 °F 9.0 °F 65% 30.04 in 10.0 mi WSW 5.8 mph - N/A   Overcast
9:54 AM 19.9 °F 13.4 °F 9.0 °F 62% 30.06 in 9.0 mi WSW 4.6 mph - N/A   Overcast
10:38 AM 19.9 °F 13.4 °F 10.9 °F 68% 30.02 in 6.0 mi Variable 4.6 mph - N/A   Haze
10:54 AM 19.9 °F 14.9 °F 12.0 °F 71% 30.05 in 6.0 mi Variable 3.5 mph - 0.00 in Snow Light Snow
11:38 AM 23.0 °F 17.0 °F 12.0 °F 63% 29.99 in 10.0 mi SSW 4.6 mph - 0.00 in   Overcast
11:54 AM 24.1 °F 18.2 °F 10.9 °F 57% 30.01 in 10.0 mi WNW 4.6 mph - 0.00 in   Overcast
12:54 PM 25.0 °F 19.3 °F 10.0 °F 53% 29.97 in 10.0 mi SSW 4.6 mph - N/A   Overcast
1:54 PM 26.1 °F - 10.0 °F 51% 29.96 in 10.0 mi North - - N/A   Overcast
2:54 PM 26.1 °F 19.4 °F 10.0 °F 51% 29.96 in 10.0 mi Variable 5.8 mph - N/A   Overcast
3:54 PM 26.1 °F 20.5 °F 10.9 °F 53% 29.98 in 10.0 mi NNE 4.6 mph - N/A   Overcast
4:54 PM 25.0 °F 20.7 °F 12.0 °F 58% 29.99 in 10.0 mi NE 3.5 mph - N/A   Overcast
5:54 PM 23.0 °F 15.8 °F 12.0 °F 63% 30.01 in 10.0 mi NNW 5.8 mph - N/A   Overcast
6:54 PM 21.9 °F 17.2 °F 12.9 °F 68% 30.03 in 10.0 mi NNW 3.5 mph - N/A   Overcast
7:09 PM 21.9 °F 15.7 °F 12.9 °F 68% 30.00 in 10.0 mi NNW 4.6 mph - N/A   Overcast
7:54 PM 21.0 °F 16.2 °F 12.9 °F 71% 30.04 in 10.0 mi North 3.5 mph - N/A   Overcast
8:54 PM 21.0 °F 16.2 °F 12.0 °F 68% 30.05 in 10.0 mi North 3.5 mph - N/A   Overcast
9:54 PM 19.9 °F 12.1 °F 12.0 °F 71% 30.06 in 10.0 mi North 5.8 mph - N/A   Overcast
10:42 PM 19.0 °F 12.3 °F 12.9 °F 77% 30.05 in 2.5 mi North 4.6 mph - 0.00 in Snow Light Snow
10:54 PM 19.0 °F 13.9 °F 12.9 °F 77% 30.08 in 2.5 mi North 3.5 mph - 0.00 in Snow Light Snow
11:30 PM 18.0 °F - 14.0 °F 84% 30.06 in 1.8 mi Calm Calm - 0.00 in Snow Light Snow
11:37 PM 18.0 °F - 14.0 °F 84% 30.06 in 2.0 mi Calm Calm - 0.00 in Snow Light Snow
11:54 PM 18.0 °F - 15.1 °F 88% 30.09 in 2.5 mi Calm Calm - 0.00 in Snow Light Snow